Location: Albany
(35.0170°S, 117.8920°E)
Time: 18:42:49
(UTC+08:00)

SR - Pass Details

Date: 30 January 2021
Orbit: 573 x 882 km, 66.7° (Epoch: 25 February)

Event Time Altitude Azimuth Distance (km) Brightness Sun altitude
Rises 22:58:25 0° 187° (S) 2,864 ? -33.9°
Reaches altitude 10° 23:02:00 10° 157° (SSE) 1,922 ? -34.2°
Enters shadow 23:02:13 11° 154° (SSE) 1,885 ? -34.2°
